K5NCO Weather Reports


Display with metric or nautical units.
time (UTC)temp
F
wind
direction
speed
MPH
gust
MPH
rain 1hr
in
rain 24hr
in
rain mn
in
humidity
%
barometer
mb
20260508161903 69 13 1.0 3.0 0.00 0.00 0.00 81 1014.9
20260508161401 69 308 1.0 1.0 0.00 0.00 0.00 80 1014.9
20260508160858 69 19 3.0 3.0 0.00 0.00 0.00 80 1014.7
20260508160356 69 346 0.0 1.0 0.00 0.00 0.00 80 1015.2
20260508155852 69 19 2.0 2.0 0.00 0.00 0.00 82 1015.1
20260508155350 68 299 1.0 2.0 0.00 0.00 0.00 81 1015.1
20260508154846 68 292 1.0 2.0 0.00 0.00 0.00 81 1015.0
20260508154344 67 299 1.0 1.0 0.00 0.00 0.00 82 1015.1
20260508153840 67 315 1.0 1.0 0.00 0.00 0.00 82 1015.3
20260508153338 67 270 1.0 2.0 0.00 0.00 0.00 83 1015.2
20260508152833 67 318 1.0 2.0 0.00 0.00 0.00 83 1015.3
20260508152330 67 26 0.0 1.0 0.00 0.00 0.00 84 1015.2
20260508151826 66 193 0.0 0.0 0.00 0.00 0.00 83 1015.3
20260508151324 66 86 0.0 0.0 0.00 0.00 0.00 83 1015.4
20260508150820 66 91 1.0 2.0 0.00 0.00 0.00 85 1015.3
20260508150316 65 30 1.0 2.0 0.00 0.00 0.00 85 1015.3
20260508145807 65 125 3.0 3.0 0.00 0.00 0.00 85 1015.3
20260508145306 66 74 2.0 3.0 0.00 0.00 0.00 84 1015.1
20260508144800 65 62 1.0 3.0 0.00 0.00 0.00 85 1015.3
20260508144258 65 46 1.0 1.0 0.00 0.00 0.00 85 1015.3
20260508143756 65 26 1.0 2.0 0.00 0.00 0.00 84 1015.3
20260508143252 65 123 1.0 2.0 0.00 0.00 0.00 85 1015.2
20260508142749 64 87 4.0 4.0 0.00 0.00 0.00 85 1015.2
20260508142246 65 95 7.0 8.0 0.00 0.00 0.00 83 1015.3
20260508141742 64 70 2.0 2.0 0.00 0.00 0.00 84 1015.2
20260508141240 64 112 0.0 1.0 0.00 0.00 0.00 85 1015.4
20260508140737 64 23 1.0 2.0 0.00 0.00 0.00 85 1015.3
20260508140233 64 23 2.0 3.0 0.00 0.00 0.00 83 1015.3
20260508135730 63 35 0.0 0.0 0.00 0.00 0.00 85 1015.1
20260508135226 63 10 2.0 3.0 0.00 0.00 0.00 85 1015.2
20260508134721 63 46 0.0 0.0 0.00 0.00 0.00 85 1015.6
20260508134219 63 71 0.0 0.0 0.00 0.00 0.00 85 1015.5
20260508133716 63 31 0.0 0.0 0.00 0.00 0.00 86 1015.5
20260508133214 62 26 2.0 3.0 0.00 0.00 0.00 85 1015.3
20260508132711 62 345 0.0 0.0 0.00 0.00 0.00 85 1015.5
20260508132208 62 331 1.0 1.0 0.00 0.00 0.00 85 1015.7
20260508131703 62 334 0.0 0.0 0.00 0.00 0.00 85 1015.7
20260508131200 62 335 0.0 0.0 0.00 0.00 0.00 86 1015.6
20260508130657 62 346 0.0 1.0 0.00 0.00 0.00 86 1015.4
20260508130154 62 48 1.0 2.0 0.00 0.00 0.00 86 1015.4
20260508125649 62 46 2.0 2.0 0.00 0.00 0.00 86 1015.5
20260508125146 62 52 0.0 0.0 0.00 0.00 0.00 86 1015.5
20260508124644 61 348 0.0 1.0 0.00 0.00 0.00 87 1015.4
20260508124141 61 24 2.0 2.0 0.00 0.00 0.00 86 1015.4
20260508123640 61 11 3.0 3.0 0.00 0.00 0.00 86 1015.7
20260508123137 61 42 0.0 0.0 0.00 0.00 0.00 86 1015.8
20260508122633 61 347 2.0 2.0 0.00 0.00 0.00 86 1015.7
20260508122130 61 4 1.0 2.0 0.00 0.00 0.00 86 1015.9
20260508121628 61 18 0.0 1.0 0.00 0.00 0.00 86 1015.8
20260508121126 61 37 3.0 3.0 0.00 0.00 0.00 86 1015.9
20260508120623 61 16 2.0 2.0 0.00 0.00 0.00 86 1015.9
20260508120122 61 79 3.0 3.0 0.00 0.00 0.00 86 1016.0
20260508115619 61 35 2.0 3.0 0.00 0.00 0.00 86 1015.8
20260508115116 61 0 0.0 0.0 0.00 0.00 0.00 86 1016.0
20260508114613 61 9 2.0 3.0 0.00 0.00 0.00 86 1016.1
20260508114108 61 17 1.0 1.0 0.00 0.00 0.00 86 1016.0
20260508113606 61 352 1.0 2.0 0.00 0.00 0.00 86 1016.4
20260508113105 61 347 2.0 3.0 0.00 0.00 0.00 86 1016.3
20260508112559 61 347 2.0 2.0 0.00 0.00 0.00 86 1016.2
20260508112057 61 337 3.0 4.0 0.00 0.00 0.00 86 1016.2
20260508111554 61 19 2.0 3.0 0.00 0.00 0.00 86 1016.2
20260508111051 61 33 2.0 4.0 0.00 0.00 0.00 86 1015.8
20260508110549 61 24 2.0 4.0 0.00 0.00 0.00 85 1015.8
20260508110044 61 23 2.0 2.0 0.00 0.00 0.00 85 1015.8
20260508105539 61 350 1.0 2.0 0.00 0.00 0.00 85 1015.7
20260508105037 62 13 3.0 4.0 0.00 0.00 0.00 84 1015.8
20260508104535 62 329 2.0 2.0 0.00 0.00 0.00 84 1015.8
20260508104031 62 331 4.0 6.0 0.00 0.00 0.00 84 1015.4
20260508103528 62 337 2.0 3.0 0.00 0.00 0.00 84 1015.5
20260508103025 62 340 3.0 4.0 0.00 0.00 0.00 84 1015.6
20260508102523 62 339 3.0 4.0 0.00 0.00 0.00 84 1015.9
20260508102021 62 23 3.0 3.0 0.00 0.00 0.00 84 1016.1
20260508101518 62 351 3.0 3.0 0.00 0.00 0.00 84 1016.3
20260508101015 62 307 0.0 0.0 0.00 0.00 0.00 84 1016.2
20260508100513 62 358 0.0 0.0 0.00 0.00 0.00 84 1016.1
20260508100010 62 6 3.0 3.0 0.00 0.00 0.00 84 1016.2
20260508095507 62 337 2.0 3.0 0.00 0.00 0.00 84 1016.4
20260508095003 62 333 1.0 1.0 0.00 0.00 0.00 84 1016.3
20260508094501 62 23 2.0 2.0 0.00 0.00 0.00 84 1016.4
20260508093957 61 351 1.0 1.0 0.00 0.00 0.00 84 1016.4
20260508093454 61 313 1.0 2.0 0.00 0.00 0.00 84 1016.4
20260508092952 61 6 3.0 3.0 0.00 0.00 0.00 85 1016.2
20260508092449 61 330 0.0 1.0 0.00 0.00 0.00 85 1016.1
20260508091948 61 2 1.0 2.0 0.00 0.00 0.00 85 1016.0
20260508091444 61 336 1.0 1.0 0.00 0.00 0.00 86 1016.2
20260508090942 61 355 2.0 2.0 0.00 0.00 0.00 86 1015.9
20260508090440 61 353 0.0 0.0 0.00 0.00 0.00 86 1016.0
20260508085935 61 344 0.0 0.0 0.00 0.00 0.00 86 1015.9
20260508085427 61 354 1.0 1.0 0.00 0.00 0.00 85 1015.8
20260508084923 61 36 2.0 2.0 0.00 0.00 0.00 85 1015.8
20260508084420 61 7 1.0 1.0 0.00 0.00 0.00 85 1015.8
20260508083918 61 5 0.0 1.0 0.00 0.00 0.00 85 1015.8
20260508083415 61 351 1.0 1.0 0.00 0.00 0.00 85 1015.8
20260508082915 61 340 1.0 1.0 0.00 0.00 0.00 85 1016.2
20260508082412 61 352 1.0 1.0 0.00 0.00 0.00 85 1015.9
20260508081910 61 347 0.0 0.0 0.00 0.00 0.00 85 1016.1
20260508081407 61 353 0.0 1.0 0.00 0.00 0.00 84 1016.0
20260508080903 61 26 0.0 1.0 0.00 0.00 0.00 84 1015.9
20260508080402 61 25 0.0 1.0 0.00 0.00 0.00 84 1015.9
20260508075857 61 16 0.0 1.0 0.00 0.00 0.00 84 1015.9
20260508075355 61 39 0.0 0.0 0.00 0.00 0.00 85 1015.9
20260508074852 61 349 1.0 2.0 0.00 0.00 0.00 84 1015.8
20260508074349 61 15 3.0 4.0 0.00 0.00 0.00 84 1015.4
20260508073846 61 21 2.0 3.0 0.00 0.00 0.00 84 1015.6
20260508073344 61 3 3.0 4.0 0.00 0.00 0.00 85 1015.6
20260508072841 61 42 2.0 2.0 0.00 0.00 0.00 85 1016.0
20260508072337 61 7 3.0 4.0 0.00 0.00 0.00 85 1015.9
20260508071834 61 34 3.0 4.0 0.00 0.00 0.00 85 1015.9
20260508071333 61 353 3.0 3.0 0.00 0.00 0.00 84 1015.7
20260508070830 61 7 4.0 4.0 0.00 0.00 0.00 84 1016.1
20260508070328 61 13 1.0 1.0 0.00 0.00 0.00 84 1016.4
20260508065825 61 23 1.0 2.0 0.00 0.00 0.00 85 1016.4
20260508065324 61 21 1.0 1.0 0.00 0.00 0.00 85 1016.2
20260508064822 61 0 1.0 2.0 0.00 0.00 0.00 85 1016.4
20260508064319 61 0 1.0 2.0 0.00 0.00 0.00 84 1016.4
20260508063816 61 357 2.0 2.0 0.00 0.00 0.00 84 1016.7
20260508063314 61 358 1.0 1.0 0.00 0.00 0.00 84 1016.8
20260508062811 61 5 0.0 0.0 0.00 0.00 0.00 85 1016.9
20260508062308 61 337 2.0 2.0 0.00 0.00 0.00 84 1017.0
20260508061805 60 320 2.0 2.0 0.00 0.00 0.00 85 1017.3
20260508061302 60 319 0.0 0.0 0.00 0.00 0.00 85 1016.8
20260508060759 60 339 1.0 2.0 0.00 0.00 0.00 85 1016.9
20260508060257 61 36 0.0 0.0 0.00 0.00 0.00 85 1016.6
20260508055752 61 15 0.0 0.0 0.00 0.00 0.00 85 1016.6
20260508055249 61 14 1.0 2.0 0.00 0.00 0.00 84 1016.5
20260508054745 61 1 1.0 2.0 0.00 0.00 0.00 84 1016.8
20260508054244 61 355 0.0 0.0 0.00 0.00 0.00 84 1016.9
20260508053740 61 320 0.0 0.0 0.00 0.00 0.00 84 1016.9
20260508053238 61 308 1.0 2.0 0.00 0.00 0.00 84 1016.9
20260508052735 61 325 2.0 2.0 0.00 0.00 0.00 85 1016.6
20260508052232 61 332 2.0 3.0 0.00 0.00 0.00 85 1016.5
20260508051728 61 336 2.0 2.0 0.00 0.00 0.00 85 1016.6
20260508051223 61 37 2.0 3.0 0.00 0.00 0.00 85 1016.2
20260508050720 61 26 0.0 0.0 0.00 0.00 0.00 84 1016.5
20260508050217 61 12 0.0 0.0 0.00 0.00 0.00 84 1016.8
20260508045713 61 349 2.0 3.0 0.00 0.00 0.00 84 1017.1
20260508045211 61 312 0.0 1.0 0.00 0.00 0.00 84 1017.2
20260508044708 61 293 1.0 2.0 0.00 0.00 0.00 85 1017.4
20260508044204 61 316 3.0 3.0 0.00 0.00 0.00 85 1017.2
20260508043700 60 10 1.0 1.0 0.00 0.00 0.00 86 1016.6
20260508043158 61 27 0.0 0.0 0.00 0.00 0.00 85 1016.3
20260508042654 61 64 2.0 3.0 0.00 0.00 0.00 85 1016.3
20260508042152 61 40 2.0 2.0 0.00 0.00 0.00 84 1016.6
20260508041648 61 315 3.0 3.0 0.00 0.00 0.00 84 1017.4
20260508041145 61 300 1.0 2.0 0.00 0.00 0.00 85 1017.4
20260508040642 61 25 0.0 1.0 0.00 0.00 0.00 84 1016.9
20260508040139 61 343 0.0 1.0 0.00 0.00 0.00 84 1017.2
20260508035636 61 339 0.0 0.0 0.00 0.00 0.00 84 1017.3
20260508035134 61 56 0.0 0.0 0.00 0.00 0.00 83 1017.3
20260508034630 61 57 1.0 1.0 0.00 0.00 0.00 83 1017.4
20260508034127 61 57 1.0 1.0 0.00 0.00 0.00 83 1017.7
20260508033625 61 24 1.0 1.0 0.00 0.00 0.00 83 1017.4
20260508033123 62 328 1.0 2.0 0.00 0.00 0.00 83 1018.1
20260508032619 62 311 3.0 4.0 0.00 0.00 0.00 82 1018.1
20260508032117 61 285 2.0 3.0 0.00 0.00 0.00 84 1017.8
20260508031614 61 267 2.0 2.0 0.00 0.00 0.00 84 1017.6
20260508031110 61 338 0.0 0.0 0.00 0.00 0.00 84 1017.2
20260508030606 61 339 0.0 0.0 0.00 0.00 0.00 83 1017.1
20260508030104 61 338 0.0 0.0 0.00 0.00 0.00 83 1016.9
20260508025600 61 329 0.0 0.0 0.00 0.00 0.00 83 1017.0
20260508025057 62 331 0.0 0.0 0.00 0.00 0.00 83 1016.8
20260508024553 62 34 1.0 1.0 0.00 0.00 0.00 82 1016.4
20260508024050 62 13 0.0 1.0 0.00 0.00 0.00 82 1016.6
20260508023547 62 341 2.0 3.0 0.00 0.00 0.00 81 1016.3
20260508023044 62 16 1.0 1.0 0.00 0.00 0.00 81 1015.8
20260508022540 62 35 0.0 0.0 0.00 0.00 0.00 81 1015.6
20260508022037 62 30 3.0 3.0 0.00 0.00 0.00 81 1015.5
20260508021533 62 353 2.0 4.0 0.00 0.00 0.00 81 1015.3
20260508021029 62 26 4.0 6.0 0.00 0.00 0.00 81 1015.4
20260508020527 62 29 2.0 3.0 0.00 0.00 0.00 80 1015.5
20260508020024 62 16 3.0 4.0 0.00 0.00 0.00 80 1015.7
20260508015521 62 29 2.0 3.0 0.00 0.00 0.00 80 1015.7
20260508015018 62 4 2.0 3.0 0.00 0.00 0.00 79 1016.0
20260508014515 62 1 3.0 3.0 0.00 0.00 0.00 79 1016.0
20260508014011 62 11 3.0 4.0 0.00 0.00 0.00 78 1015.8
20260508013507 62 30 1.0 1.0 0.00 0.00 0.00 78 1015.7
20260508013005 62 45 4.0 6.0 0.00 0.00 0.00 78 1015.9
20260508012502 62 40 2.0 3.0 0.00 0.00 0.00 77 1015.4
20260508011959 63 41 4.0 7.0 0.00 0.00 0.00 77 1015.5
20260508011457 63 57 2.0 3.0 0.00 0.00 0.00 77 1015.9
20260508010954 63 42 2.0 3.0 0.00 0.00 0.00 78 1016.1
20260508010451 63 12 2.0 2.0 0.00 0.00 0.00 76 1016.0
20260508005948 63 21 3.0 3.0 0.00 0.00 0.00 75 1016.4
20260508005445 63 328 2.0 2.0 0.00 0.00 0.00 75 1016.5
20260508004941 64 37 2.0 2.0 0.00 0.00 0.00 75 1016.3
20260508004437 64 27 0.0 1.0 0.00 0.00 0.00 74 1016.2
20260508003934 64 54 5.0 7.0 0.00 0.00 0.00 73 1016.2
20260508003431 64 21 4.0 6.0 0.00 0.00 0.00 73 1016.1
20260508002928 64 50 2.0 2.0 0.00 0.00 0.00 74 1016.2
20260508002425 64 25 2.0 2.0 0.00 0.00 0.00 73 1016.5
20260508001921 64 26 3.0 3.0 0.00 0.00 0.00 72 1016.9
20260508001417 64 25 5.0 7.0 0.00 0.00 0.00 72 1017.0
20260508000913 64 311 3.0 3.0 0.00 0.00 0.00 72 1017.2
20260508000405 65 38 4.0 6.0 0.00 0.00 0.00 71 1017.3
20260507235901 65 23 4.0 4.0 0.00 0.00 0.00 72 1017.3
20260507235358 65 5 3.0 3.0 0.00 0.00 0.00 72 1017.4
20260507234855 65 339 5.0 7.0 0.00 0.00 0.00 72 1017.3
20260507234352 65 348 2.0 3.0 0.00 0.00 0.00 71 1017.3
20260507233848 65 340 2.0 4.0 0.00 0.00 0.00 70 1017.2
20260507233346 65 347 0.0 2.0 0.00 0.00 0.00 71 1017.1
20260507232844 65 349 0.0 1.0 0.00 0.00 0.00 72 1017.2
20260507232340 65 6 3.0 3.0 0.00 0.00 0.00 71 1017.0
20260507231838 65 66 2.0 2.0 0.00 0.00 0.00 71 1016.6
20260507231334 65 41 3.0 4.0 0.00 0.00 0.00 71 1016.7
20260507230830 66 39 2.0 2.0 0.00 0.00 0.00 71 1017.2
20260507230328 66 24 1.0 1.0 0.00 0.00 0.00 70 1017.1
20260507225827 65 14 5.0 7.0 0.00 0.00 0.00 69 1017.3
20260507225324 65 26 1.0 3.0 0.00 0.00 0.00 70 1017.3
20260507224820 66 357 3.0 4.0 0.00 0.00 0.00 70 1016.9
20260507224317 65 36 2.0 2.0 0.00 0.00 0.00 72 1017.0
20260507223813 65 343 1.0 2.0 0.00 0.00 0.00 70 1017.3
20260507223309 65 10 3.0 4.0 0.00 0.00 0.00 70 1017.3
20260507222807 65 351 4.0 7.0 0.00 0.00 0.00 70 1017.4
20260507222306 65 347 2.0 3.0 0.00 0.00 0.00 70 1017.5
20260507221800 65 332 6.0 8.0 0.00 0.00 0.00 69 1017.7
20260507221256 66 304 2.0 3.0 0.00 0.00 0.00 70 1017.9
20260507220752 66 309 6.0 8.0 0.00 0.00 0.00 68 1017.7
20260507220251 65 2 3.0 4.0 0.00 0.00 0.00 69 1017.6
20260507215747 65 345 8.0 9.0 0.00 0.00 0.00 69 1017.5
20260507215244 65 340 5.0 8.0 0.00 0.00 0.00 69 1017.8
20260507214741 66 327 6.0 8.0 0.00 0.00 0.00 69 1018.2
20260507214239 66 340 2.0 3.0 0.00 0.00 0.00 71 1017.9
20260507213733 66 318 5.0 8.0 0.00 0.00 0.00 70 1017.8
20260507213231 66 3 8.0 10.0 0.00 0.00 0.00 70 1017.9
20260507212727 65 1 4.0 7.0 0.00 0.00 0.00 72 1018.1
20260507212224 65 36 3.0 4.0 0.00 0.00 0.00 72 1017.7
20260507211721 65 26 4.0 6.0 0.00 0.00 0.00 73 1017.3
20260507211216 64 35 4.0 4.0 0.00 0.00 0.00 74 1017.5
20260507210714 64 348 3.0 4.0 0.00 0.00 0.00 73 1017.7
20260507210211 64 359 4.0 7.0 0.00 0.00 0.00 73 1017.7
20260507205707 64 352 3.0 4.0 0.00 0.00 0.00 73 1017.9
20260507205204 64 357 6.0 8.0 0.00 0.00 0.00 73 1018.3
20260507204700 65 49 1.0 2.0 0.00 0.00 0.00 73 1018.5
20260507204158 64 337 0.0 1.0 0.00 0.00 0.00 74 1018.6
20260507203656 64 345 2.0 4.0 0.00 0.00 0.00 74 1018.2
20260507203153 64 340 3.0 6.0 0.00 0.00 0.00 73 1018.7
20260507202648 64 23 4.0 7.0 0.00 0.00 0.00 73 1018.7
20260507202144 65 7 3.0 4.0 0.00 0.00 0.00 73 1018.8
20260507201640 64 342 2.0 3.0 0.00 0.00 0.00 75 1018.9
20260507201137 64 11 5.0 7.0 0.00 0.00 0.00 73 1018.7
20260507200633 64 37 4.0 4.0 0.00 0.00 0.00 73 1018.9
20260507200129 63 344 2.0 4.0 0.00 0.00 0.00 75 1018.4
20260507195626 63 336 3.0 6.0 0.00 0.00 0.00 75 1018.5
20260507195123 63 9 4.0 9.0 0.00 0.00 0.00 76 1018.7
20260507194620 63 334 3.0 3.0 0.00 0.00 0.00 75 1019.3
20260507194115 63 15 3.0 3.0 0.00 0.00 0.00 74 1019.2
20260507193613 63 37 5.0 8.0 0.00 0.00 0.00 74 1019.1
20260507193110 63 83 3.0 6.0 0.00 0.00 0.00 75 1019.1
20260507192606 63 53 4.0 6.0 0.00 0.00 0.00 75 1019.0
20260507192103 63 17 3.0 4.0 0.00 0.00 0.00 74 1019.3
20260507191558 62 340 4.0 7.0 0.00 0.00 0.00 75 1019.3
20260507191056 62 10 6.0 7.0 0.00 0.00 0.00 76 1019.2
20260507190553 62 45 1.0 3.0 0.00 0.00 0.00 77 1019.5
20260507190051 62 30 2.0 2.0 0.00 0.00 0.00 76 1019.3
20260507185549 62 36 4.0 6.0 0.00 0.00 0.00 76 1019.0
20260507185046 62 9 2.0 3.0 0.00 0.00 0.00 77 1019.1
20260507184544 62 341 11.0 16.0 0.00 0.00 0.00 75 1019.3
20260507184042 62 65 4.0 6.0 0.00 0.00 0.00 77 1019.2
20260507183537 62 6 4.0 9.0 0.00 0.00 0.00 76 1019.6
20260507183034 62 34 6.0 8.0 0.00 0.00 0.00 76 1019.2
20260507182531 62 49 9.0 13.0 0.00 0.00 0.00 76 1019.0
20260507182027 62 337 5.0 7.0 0.00 0.00 0.00 77 1019.3
20260507181524 62 23 6.0 7.0 0.00 0.00 0.00 76 1019.6
20260507181020 62 358 4.0 4.0 0.00 0.00 0.00 77 1019.6
20260507180516 62 27 5.0 8.0 0.00 0.00 0.00 77 1019.3
20260507180014 62 346 7.0 9.0 0.00 0.00 0.00 77 1019.7
20260507175510 62 13 5.0 8.0 0.00 0.00 0.00 78 1019.6
20260507175007 62 31 6.0 9.0 0.00 0.00 0.00 78 1019.3
20260507174504 62 31 2.0 6.0 0.00 0.00 0.00 79 1019.4
20260507174002 62 20 6.0 8.0 0.00 0.00 0.00 78 1019.6
20260507173459 62 25 2.0 3.0 0.00 0.00 0.00 80 1019.8
20260507172956 61 45 6.0 8.0 0.00 0.00 0.00 81 1019.6
20260507172452 61 33 6.0 10.0 0.00 0.00 0.00 80 1019.7
20260507171949 61 331 7.0 10.0 0.00 0.00 0.00 81 1019.5
20260507171444 60 53 1.0 3.0 0.00 0.00 0.00 82 1019.4
20260507170942 60 40 3.0 6.0 0.00 0.00 0.00 82 1019.2
20260507170438 60 21 5.0 10.0 0.00 0.00 0.00 82 1019.4
20260507165935 60 50 0.0 1.0 0.00 0.00 0.00 83 1019.9
20260507165431 59 2 10.0 13.0 0.00 0.00 0.00 83 1019.6
20260507164926 60 322 2.0 2.0 0.00 0.00 0.00 83 1019.6
20260507164424 59 332 2.0 3.0 0.00 0.00 0.00 84 1019.9
20260507163921 59 32 9.0 13.0 0.00 0.00 0.00 83 1019.8
20260507163418 59 0 7.0 13.0 0.00 0.00 0.00 83 1020.4
20260507162915 59 322 3.0 4.0 0.00 0.00 0.00 84 1020.9
20260507162410 59 28 5.0 7.0 0.00 0.00 0.00 83 1021.3